Location: Unspecified
(51.5147°N, 7.4673°E)
Time: 21:32:43
(UTC+01:00)

Vanguard 2 - Visible Passes

Search period start: 15 February 2026 00:00
Search period end: 25 February 2026 00:00
Orbit: 553 x 2897 km, 32.9° (Epoch: 14 February)

Date Brightness Start Highest point End Pass type
(mag) Time Alt. Az. Time Alt. Az. Time Alt. Az.
23 Feb 10.3 04:23:47 10° S 04:23:47 10° S 04:24:25 10° SSE visible
23 Feb 10.0 06:29:35 10° SSW 06:30:29 10° S 06:31:19 10° S visible
24 Feb 10.2 04:34:57 13° S 04:35:13 13° S 04:37:50 10° SSE visible
24 Feb 10.0 06:41:03 10° SSW 06:42:05 10° SSW 06:43:03 10° S visible
